| time (UTC) | temp F | wind direction | speed MPH | gust MPH | rain 1hr in | rain 24hr in | rain mn in | humidity % | barometer mb |
| 20260506213800 | 60 | 360 | 1.0 | 6.0 | 0.00 | 0.14 | 0.12 | 93 | 1003.7 |
| 20260506213311 | 60 | 360 | 3.0 | 6.0 | 0.00 | 0.14 | 0.12 | 93 | 1003.7 |
| 20260506212807 | 60 | 360 | 1.0 | 3.0 | 0.00 | 0.14 | 0.12 | 93 | 1003.7 |
| 20260506212307 | 60 | 360 | 1.0 | 6.0 | 0.00 | 0.14 | 0.12 | 93 | 1003.7 |
| 20260506211808 | 60 | 360 | 1.0 | 6.0 | 0.00 | 0.14 | 0.12 | 93 | 1003.7 |
| 20260506211303 | 60 | 360 | 1.0 | 7.0 | 0.00 | 0.14 | 0.12 | 93 | 1003.7 |
| 20260506210800 | 60 | 360 | 2.0 | 6.0 | 0.00 | 0.14 | 0.12 | 93 | 1003.7 |
| 20260506210307 | 60 | 360 | 2.0 | 6.0 | 0.00 | 0.14 | 0.12 | 93 | 1003.7 |
| 20260506205823 | 60 | 360 | 1.0 | 5.0 | 0.01 | 0.14 | 0.12 | 93 | 1003.7 |
| 20260506205257 | 60 | 360 | 1.0 | 4.0 | 0.01 | 0.14 | 0.12 | 93 | 1003.8 |
| 20260506204807 | 60 | 360 | 2.0 | 4.0 | 0.01 | 0.14 | 0.12 | 93 | 1003.8 |
| 20260506204303 | 60 | 360 | 0.0 | 4.0 | 0.01 | 0.14 | 0.12 | 93 | 1003.8 |
| 20260506203758 | 60 | 360 | 1.0 | 3.0 | 0.01 | 0.14 | 0.12 | 93 | 1004.1 |
| 20260506203257 | 60 | 360 | 0.0 | 6.0 | 0.01 | 0.14 | 0.12 | 92 | 1004.1 |
| 20260506202814 | 60 | 360 | 1.0 | 4.0 | 0.01 | 0.14 | 0.12 | 92 | 1004.1 |
| 20260506202310 | 60 | 360 | 1.0 | 4.0 | 0.01 | 0.14 | 0.12 | 92 | 1004.2 |
| 20260506201804 | 60 | 360 | 1.0 | 5.0 | 0.02 | 0.14 | 0.12 | 92 | 1004.2 |
| 20260506201300 | 60 | 360 | 1.0 | 4.0 | 0.02 | 0.14 | 0.12 | 92 | 1004.2 |
| 20260506200758 | 60 | 360 | 2.0 | 9.0 | 0.02 | 0.14 | 0.12 | 92 | 1004.5 |
| 20260506200306 | 61 | 360 | 2.0 | 9.0 | 0.01 | 0.13 | 0.11 | 92 | 1004.5 |
| 20260506195757 | 61 | 360 | 1.0 | 5.0 | 0.01 | 0.13 | 0.11 | 92 | 1004.5 |
| 20260506195310 | 61 | 360 | 1.0 | 7.0 | 0.01 | 0.13 | 0.11 | 91 | 1004.7 |
| 20260506194804 | 61 | 360 | 2.0 | 7.0 | 0.02 | 0.13 | 0.11 | 92 | 1004.7 |
| 20260506194258 | 61 | 360 | 2.0 | 4.0 | 0.02 | 0.13 | 0.11 | 92 | 1004.7 |
| 20260506193813 | 61 | 360 | 1.0 | 4.0 | 0.02 | 0.13 | 0.11 | 92 | 1004.7 |
| 20260506193300 | 61 | 360 | 1.0 | 5.0 | 0.02 | 0.13 | 0.11 | 91 | 1004.7 |
| 20260506192802 | 61 | 360 | 1.0 | 5.0 | 0.02 | 0.13 | 0.11 | 91 | 1004.7 |
| 20260506192314 | 61 | 360 | 1.0 | 5.0 | 0.02 | 0.12 | 0.10 | 91 | 1004.8 |
| 20260506191812 | 61 | 360 | 1.0 | 3.0 | 0.02 | 0.12 | 0.10 | 91 | 1004.8 |
| 20260506191301 | 62 | 360 | 1.0 | 3.0 | 0.02 | 0.12 | 0.10 | 91 | 1004.8 |
| 20260506190834 | 62 | 360 | 1.0 | 3.0 | 0.02 | 0.12 | 0.10 | 91 | 1004.7 |
| 20260506190300 | 62 | 360 | 2.0 | 3.0 | 0.03 | 0.12 | 0.10 | 90 | 1004.7 |
| 20260506185756 | 62 | 360 | 2.0 | 4.0 | 0.03 | 0.12 | 0.10 | 90 | 1004.7 |
| 20260506185312 | 62 | 360 | 0.0 | 5.0 | 0.03 | 0.12 | 0.10 | 90 | 1004.8 |
| 20260506184805 | 62 | 360 | 2.0 | 5.0 | 0.02 | 0.11 | 0.09 | 90 | 1004.8 |
| 20260506184259 | 62 | 360 | 1.0 | 4.0 | 0.03 | 0.11 | 0.09 | 90 | 1004.8 |
| 20260506183814 | 62 | 360 | 1.0 | 2.0 | 0.03 | 0.11 | 0.09 | 89 | 1005.1 |
| 20260506183307 | 63 | 360 | 1.0 | 2.0 | 0.04 | 0.11 | 0.09 | 89 | 1005.1 |
| 20260506182758 | 63 | 360 | 1.0 | 2.0 | 0.06 | 0.11 | 0.09 | 89 | 1005.1 |
| 20260506182321 | 63 | 360 | 1.0 | 3.0 | 0.06 | 0.10 | 0.08 | 89 | 1005.2 |
| 20260506181800 | 63 | 360 | 1.0 | 3.0 | 0.07 | 0.10 | 0.08 | 89 | 1005.2 |
| 20260506181313 | 63 | 360 | 1.0 | 3.0 | 0.07 | 0.10 | 0.08 | 89 | 1005.2 |
| 20260506180808 | 63 | 360 | 1.0 | 2.0 | 0.08 | 0.10 | 0.08 | 88 | 1005.2 |
| 20260506180255 | 63 | 360 | 0.0 | 2.0 | 0.07 | 0.09 | 0.07 | 88 | 1005.2 |
| 20260506175810 | 63 | 360 | 0.0 | 1.0 | 0.07 | 0.09 | 0.07 | 87 | 1005.2 |
| 20260506175306 | 63 | 360 | 0.0 | 1.0 | 0.07 | 0.09 | 0.07 | 87 | 1005.4 |
| 20260506174759 | 64 | 360 | 0.0 | 1.0 | 0.07 | 0.09 | 0.07 | 87 | 1005.4 |
| 20260506174330 | 64 | 360 | 0.0 | 1.0 | 0.06 | 0.08 | 0.06 | 86 | 1005.4 |
| 20260506173823 | 64 | 360 | 0.0 | 1.0 | 0.06 | 0.08 | 0.06 | 85 | 1005.8 |
| 20260506173259 | 64 | 360 | 0.0 | 1.0 | 0.05 | 0.07 | 0.05 | 85 | 1005.8 |
| 20260506172757 | 64 | 360 | 0.0 | 1.0 | 0.03 | 0.05 | 0.03 | 85 | 1005.8 |
| 20260506172312 | 64 | 360 | 0.0 | 2.0 | 0.02 | 0.04 | 0.02 | 85 | 1006.1 |
| 20260506171811 | 64 | 360 | 0.0 | 2.0 | 0.01 | 0.03 | 0.01 | 84 | 1006.1 |
| 20260506171305 | 64 | 360 | 0.0 | 1.0 | 0.01 | 0.03 | 0.01 | 83 | 1006.1 |
| 20260506170758 | 64 | 360 | 0.0 | 2.0 | 0.00 | 0.02 | 0.00 | 83 | 1006.2 |
| 20260506170308 | 64 | 360 | 0.0 | 3.0 | 0.00 | 0.02 | 0.00 | 82 | 1006.2 |
| 20260506165759 | 64 | 360 | 1.0 | 3.0 | 0.00 | 0.02 | 0.00 | 82 | 1006.2 |
| 20260506165256 | 64 | 360 | 0.0 | 2.0 | 0.00 | 0.02 | 0.00 | 81 | 1006.1 |
| 20260506164809 | 64 | 360 | 0.0 | 6.0 | 0.00 | 0.02 | 0.00 | 81 | 1006.1 |
| 20260506164304 | 64 | 360 | 1.0 | 6.0 | 0.00 | 0.02 | 0.00 | 81 | 1006.1 |
| 20260506163801 | 64 | 360 | 1.0 | 5.0 | 0.00 | 0.02 | 0.00 | 80 | 1006.2 |
| 20260506163259 | 64 | 360 | 1.0 | 8.0 | 0.00 | 0.02 | 0.00 | 80 | 1006.2 |
| 20260506162756 | 64 | 360 | 1.0 | 4.0 | 0.00 | 0.02 | 0.00 | 80 | 1006.2 |
| 20260506162307 | 65 | 360 | 1.0 | 4.0 | 0.00 | 0.02 | 0.00 | 80 | 1006.3 |
| 20260506161802 | 65 | 360 | 0.0 | 7.0 | 0.00 | 0.02 | 0.00 | 79 | 1006.3 |
| 20260506161300 | 65 | 360 | 2.0 | 7.0 | 0.00 | 0.02 | 0.00 | 79 | 1006.3 |
| 20260506160756 | 65 | 360 | 1.0 | 5.0 | 0.00 | 0.02 | 0.00 | 79 | 1006.3 |
| 20260506160303 | 65 | 360 | 1.0 | 4.0 | 0.00 | 0.02 | 0.00 | 79 | 1006.3 |
| 20260506155756 | 64 | 360 | 2.0 | 7.0 | 0.00 | 0.02 | 0.00 | 79 | 1006.3 |
| 20260506155307 | 64 | 360 | 2.0 | 7.0 | 0.00 | 0.02 | 0.00 | 79 | 1006.8 |
| 20260506154811 | 64 | 360 | 2.0 | 5.0 | 0.00 | 0.02 | 0.00 | 79 | 1006.8 |
| 20260506154307 | 64 | 360 | 1.0 | 5.0 | 0.00 | 0.02 | 0.00 | 79 | 1006.8 |
| 20260506153802 | 64 | 360 | 1.0 | 5.0 | 0.00 | 0.02 | 0.00 | 80 | 1006.9 |
| 20260506153301 | 64 | 360 | 2.0 | 5.0 | 0.00 | 0.02 | 0.00 | 80 | 1006.9 |
| 20260506152756 | 64 | 360 | 1.0 | 5.0 | 0.00 | 0.02 | 0.00 | 80 | 1006.9 |
| 20260506152307 | 64 | 360 | 1.0 | 4.0 | 0.00 | 0.02 | 0.00 | 80 | 1007.4 |
| 20260506151759 | 64 | 360 | 1.0 | 6.0 | 0.00 | 0.02 | 0.00 | 80 | 1007.4 |
| 20260506151312 | 63 | 360 | 3.0 | 6.0 | 0.00 | 0.02 | 0.00 | 80 | 1007.4 |
| 20260506150807 | 63 | 360 | 2.0 | 5.0 | 0.00 | 0.02 | 0.00 | 81 | 1007.2 |
| 20260506150304 | 63 | 360 | 2.0 | 5.0 | 0.00 | 0.02 | 0.00 | 81 | 1007.2 |
| 20260506145759 | 63 | 360 | 2.0 | 5.0 | 0.00 | 0.02 | 0.00 | 81 | 1007.2 |
| 20260506145313 | 63 | 360 | 1.0 | 7.0 | 0.00 | 0.02 | 0.00 | 80 | 1007.3 |
| 20260506144808 | 63 | 360 | 2.0 | 7.0 | 0.00 | 0.02 | 0.00 | 80 | 1007.3 |
| 20260506144301 | 63 | 360 | 1.0 | 3.0 | 0.00 | 0.02 | 0.00 | 80 | 1007.3 |
| 20260506143756 | 63 | 360 | 1.0 | 5.0 | 0.00 | 0.02 | 0.00 | 80 | 1007.4 |
| 20260506143256 | 63 | 360 | 2.0 | 6.0 | 0.00 | 0.02 | 0.00 | 80 | 1007.4 |
| 20260506142756 | 63 | 360 | 2.0 | 6.0 | 0.00 | 0.02 | 0.00 | 81 | 1007.4 |
| 20260506142306 | 63 | 360 | 2.0 | 6.0 | 0.00 | 0.02 | 0.00 | 81 | 1007.1 |
| 20260506141759 | 63 | 360 | 2.0 | 6.0 | 0.00 | 0.02 | 0.00 | 81 | 1007.1 |
| 20260506141259 | 63 | 360 | 2.0 | 6.0 | 0.00 | 0.02 | 0.00 | 81 | 1007.1 |
| 20260506140819 | 63 | 360 | 2.0 | 9.0 | 0.00 | 0.02 | 0.00 | 82 | 1007.3 |
| 20260506140255 | 63 | 360 | 3.0 | 9.0 | 0.00 | 0.02 | 0.00 | 82 | 1007.3 |
| 20260506135812 | 62 | 360 | 3.0 | 6.0 | 0.00 | 0.02 | 0.00 | 82 | 1007.3 |
| 20260506135306 | 62 | 360 | 2.0 | 6.0 | 0.00 | 0.02 | 0.00 | 83 | 1007.0 |
| 20260506134801 | 62 | 360 | 2.0 | 4.0 | 0.00 | 0.02 | 0.00 | 84 | 1007.0 |
| 20260506134254 | 62 | 360 | 1.0 | 6.0 | 0.00 | 0.02 | 0.00 | 84 | 1007.0 |
| 20260506133812 | 61 | 360 | 2.0 | 6.0 | 0.00 | 0.02 | 0.00 | 84 | 1006.9 |
| 20260506133304 | 61 | 360 | 1.0 | 6.0 | 0.00 | 0.02 | 0.00 | 84 | 1006.9 |
| 20260506132822 | 61 | 360 | 1.0 | 6.0 | 0.00 | 0.02 | 0.00 | 85 | 1006.9 |
| 20260506132256 | 61 | 360 | 1.0 | 3.0 | 0.00 | 0.02 | 0.00 | 85 | 1007.3 |
| 20260506131810 | 61 | 360 | 2.0 | 5.0 | 0.00 | 0.02 | 0.00 | 85 | 1007.3 |
| 20260506131302 | 60 | 360 | 2.0 | 5.0 | 0.00 | 0.02 | 0.00 | 85 | 1007.3 |
| 20260506130804 | 60 | 360 | 1.0 | 4.0 | 0.00 | 0.02 | 0.00 | 86 | 1007.5 |
| 20260506130255 | 60 | 360 | 1.0 | 4.0 | 0.00 | 0.02 | 0.00 | 86 | 1007.5 |
| 20260506125812 | 60 | 360 | 2.0 | 4.0 | 0.00 | 0.02 | 0.00 | 86 | 1007.5 |
| 20260506125309 | 60 | 360 | 1.0 | 4.0 | 0.00 | 0.02 | 0.00 | 86 | 1007.8 |
| 20260506124805 | 60 | 360 | 1.0 | 4.0 | 0.00 | 0.02 | 0.00 | 86 | 1007.8 |
| 20260506124253 | 60 | 360 | 1.0 | 2.0 | 0.00 | 0.02 | 0.00 | 86 | 1007.8 |
| 20260506123811 | 60 | 360 | 1.0 | 4.0 | 0.00 | 0.02 | 0.00 | 86 | 1007.8 |
| 20260506123309 | 59 | 360 | 1.0 | 6.0 | 0.00 | 0.02 | 0.00 | 86 | 1007.8 |
| 20260506122809 | 59 | 360 | 1.0 | 6.0 | 0.00 | 0.02 | 0.00 | 87 | 1007.8 |
| 20260506122306 | 59 | 360 | 1.0 | 5.0 | 0.00 | 0.02 | 0.00 | 87 | 1007.8 |
| 20260506121759 | 59 | 360 | 2.0 | 5.0 | 0.00 | 0.02 | 0.00 | 87 | 1007.8 |
| 20260506121255 | 59 | 360 | 1.0 | 5.0 | 0.00 | 0.02 | 0.00 | 87 | 1007.8 |
| 20260506120812 | 59 | 360 | 1.0 | 5.0 | 0.00 | 0.02 | 0.00 | 87 | 1007.8 |
| 20260506120301 | 59 | 360 | 1.0 | 6.0 | 0.00 | 0.02 | 0.00 | 88 | 1007.8 |
| 20260506115756 | 59 | 360 | 1.0 | 6.0 | 0.00 | 0.02 | 0.00 | 88 | 1007.8 |
| 20260506115306 | 58 | 360 | 1.0 | 4.0 | 0.00 | 0.02 | 0.00 | 88 | 1007.8 |
| 20260506114802 | 58 | 360 | 1.0 | 4.0 | 0.00 | 0.02 | 0.00 | 88 | 1007.8 |
| 20260506114258 | 58 | 360 | 0.0 | 3.0 | 0.00 | 0.02 | 0.00 | 88 | 1007.8 |
| 20260506113754 | 58 | 360 | 0.0 | 3.0 | 0.00 | 0.02 | 0.00 | 88 | 1007.8 |
| 20260506113306 | 58 | 360 | 1.0 | 3.0 | 0.00 | 0.02 | 0.00 | 88 | 1007.8 |
| 20260506112801 | 58 | 360 | 0.0 | 3.0 | 0.00 | 0.02 | 0.00 | 89 | 1007.8 |
| 20260506112257 | 58 | 360 | 1.0 | 4.0 | 0.00 | 0.02 | 0.00 | 89 | 1007.9 |
| 20260506111755 | 58 | 360 | 2.0 | 5.0 | 0.00 | 0.02 | 0.00 | 89 | 1007.9 |
| 20260506111300 | 57 | 360 | 2.0 | 5.0 | 0.00 | 0.02 | 0.00 | 90 | 1007.9 |
| 20260506110812 | 57 | 360 | 0.0 | 4.0 | 0.00 | 0.02 | 0.00 | 90 | 1007.9 |
| 20260506110335 | 57 | 253 | 2.0 | 4.0 | 0.00 | 0.02 | 0.00 | 90 | 1007.9 |
| 20260506105809 | 57 | 46 | 0.0 | 2.0 | 0.00 | 0.02 | 0.00 | 90 | 1007.9 |
| 20260506105310 | 57 | 360 | 0.0 | 2.0 | 0.00 | 0.02 | 0.00 | 90 | 1007.9 |
| 20260506104809 | 57 | 351 | 1.0 | 2.0 | 0.00 | 0.02 | 0.00 | 90 | 1007.9 |
| 20260506104300 | 56 | 360 | 1.0 | 2.0 | 0.00 | 0.02 | 0.00 | 90 | 1007.9 |
| 20260506103758 | 56 | 360 | 1.0 | 2.0 | 0.00 | 0.02 | 0.00 | 91 | 1007.9 |
| 20260506103258 | 56 | 317 | 0.0 | 2.0 | 0.00 | 0.02 | 0.00 | 91 | 1007.9 |
| 20260506102820 | 56 | 360 | 0.0 | 2.0 | 0.00 | 0.02 | 0.00 | 90 | 1007.9 |
| 20260506102258 | 56 | 62 | 0.0 | 2.0 | 0.00 | 0.02 | 0.00 | 90 | 1007.8 |
| 20260506101758 | 56 | 65 | 0.0 | 2.0 | 0.00 | 0.02 | 0.00 | 90 | 1007.8 |
| 20260506101256 | 56 | 63 | 0.0 | 1.0 | 0.00 | 0.02 | 0.00 | 90 | 1007.8 |
| 20260506100800 | 56 | 61 | 0.0 | 1.0 | 0.00 | 0.02 | 0.00 | 90 | 1007.8 |
| 20260506100328 | 56 | 61 | 0.0 | 0.0 | 0.00 | 0.02 | 0.00 | 90 | 1007.8 |
| 20260506095801 | 56 | 61 | 0.0 | 0.0 | 0.00 | 0.02 | 0.00 | 90 | 1007.8 |
| 20260506095258 | 55 | 61 | 0.0 | 1.0 | 0.00 | 0.02 | 0.00 | 89 | 1007.4 |
| 20260506094756 | 55 | 62 | 0.0 | 1.0 | 0.00 | 0.02 | 0.00 | 89 | 1007.4 |
| 20260506094310 | 55 | 64 | 0.0 | 1.0 | 0.00 | 0.02 | 0.00 | 89 | 1007.4 |
| 20260506093807 | 55 | 63 | 0.0 | 3.0 | 0.00 | 0.02 | 0.00 | 89 | 1007.6 |
| 20260506093302 | 55 | 65 | 0.0 | 3.0 | 0.00 | 0.02 | 0.00 | 89 | 1007.6 |
| 20260506092756 | 55 | 43 | 0.0 | 0.0 | 0.00 | 0.02 | 0.00 | 88 | 1007.6 |
| 20260506092308 | 55 | 45 | 0.0 | 0.0 | 0.00 | 0.02 | 0.00 | 88 | 1007.7 |
| 20260506091802 | 55 | 360 | 0.0 | 0.0 | 0.00 | 0.02 | 0.00 | 88 | 1007.7 |
| 20260506091334 | 55 | 360 | 0.0 | 0.0 | 0.00 | 0.02 | 0.00 | 87 | 1007.7 |
| 20260506090805 | 55 | 360 | 0.0 | 0.0 | 0.00 | 0.02 | 0.00 | 87 | 1007.8 |
| 20260506090255 | 55 | 360 | 0.0 | 0.0 | 0.00 | 0.02 | 0.00 | 87 | 1007.8 |
| 20260506085805 | 55 | 360 | 0.0 | 0.0 | 0.00 | 0.02 | 0.00 | 87 | 1007.8 |
| 20260506085300 | 55 | 45 | 0.0 | 0.0 | 0.00 | 0.02 | 0.00 | 86 | 1007.7 |
| 20260506084815 | 56 | 360 | 0.0 | 0.0 | 0.00 | 0.02 | 0.00 | 86 | 1007.7 |
| 20260506084302 | 56 | 360 | 0.0 | 0.0 | 0.00 | 0.02 | 0.00 | 85 | 1007.7 |
| 20260506083821 | 56 | 44 | 0.0 | 0.0 | 0.00 | 0.02 | 0.00 | 85 | 1007.8 |
| 20260506083311 | 56 | 44 | 0.0 | 0.0 | 0.00 | 0.02 | 0.00 | 84 | 1007.8 |
| 20260506082831 | 56 | 360 | 0.0 | 0.0 | 0.00 | 0.02 | 0.00 | 84 | 1007.8 |
| 20260506082328 | 56 | 360 | 0.0 | 0.0 | 0.00 | 0.02 | 0.00 | 83 | 1007.8 |
| 20260506081802 | 56 | 44 | 0.0 | 0.0 | 0.00 | 0.02 | 0.00 | 83 | 1007.8 |
| 20260506081259 | 57 | 360 | 0.0 | 0.0 | 0.00 | 0.02 | 0.00 | 83 | 1007.8 |
| 20260506080757 | 57 | 360 | 0.0 | 0.0 | 0.00 | 0.02 | 0.00 | 82 | 1007.8 |
| 20260506080302 | 57 | 360 | 0.0 | 0.0 | 0.00 | 0.02 | 0.00 | 82 | 1007.8 |
| 20260506073309 | 58 | 360 | 0.0 | 0.0 | 0.00 | 0.02 | 0.00 | 79 | 1007.8 |
| 20260506072820 | 58 | 360 | 0.0 | 0.0 | 0.00 | 0.02 | 0.00 | 79 | 1007.8 |
| 20260506072257 | 59 | 360 | 0.0 | 0.0 | 0.00 | 0.02 | 0.00 | 79 | 1007.9 |
| 20260506071752 | 59 | 360 | 0.0 | 0.0 | 0.00 | 0.02 | 0.00 | 78 | 1007.9 |
| 20260506071253 | 59 | 360 | 0.0 | 0.0 | 0.00 | 0.02 | 0.00 | 78 | 1007.9 |
| 20260506070813 | 59 | 360 | 0.0 | 0.0 | 0.00 | 0.02 | 0.00 | 78 | 1007.9 |
| 20260506070255 | 60 | 360 | 0.0 | 0.0 | 0.00 | 0.02 | 0.00 | 77 | 1007.9 |
| 20260506062315 | 61 | 360 | 0.0 | 1.0 | 0.00 | 0.02 | 0.00 | 75 | 1007.5 |
| 20260506061806 | 61 | 360 | 0.0 | 0.0 | 0.00 | 0.02 | 0.00 | 75 | 1007.5 |
| 20260506061305 | 61 | 360 | 0.0 | 1.0 | 0.00 | 0.02 | 0.00 | 74 | 1007.5 |
| 20260506060758 | 61 | 360 | 0.0 | 1.0 | 0.00 | 0.02 | 0.00 | 74 | 1007.7 |
| 20260506060321 | 61 | 360 | 0.0 | 1.0 | 0.00 | 0.02 | 0.00 | 73 | 1007.7 |
| 20260506051256 | 62 | 360 | 0.0 | 2.0 | 0.00 | 0.02 | 0.00 | 72 | 1007.9 |
| 20260506050809 | 62 | 360 | 0.0 | 2.0 | 0.00 | 0.02 | 0.00 | 71 | 1007.9 |
| 20260506050259 | 62 | 360 | 0.0 | 4.0 | 0.00 | 0.02 | 0.00 | 71 | 1007.9 |
| 20260506044809 | 63 | 360 | 0.0 | 4.0 | 0.00 | 0.02 | 0.00 | 70 | 1007.8 |
| 20260506044305 | 63 | 360 | 1.0 | 4.0 | 0.00 | 0.02 | 0.00 | 70 | 1007.8 |
| 20260506043801 | 63 | 360 | 2.0 | 3.0 | 0.00 | 0.02 | 0.00 | 70 | 1007.8 |
| 20260506043301 | 63 | 360 | 0.0 | 3.0 | 0.00 | 0.02 | 0.00 | 70 | 1007.8 |
| 20260506042756 | 63 | 360 | 1.0 | 2.0 | 0.00 | 0.02 | 0.00 | 69 | 1007.8 |
| 20260506042307 | 63 | 360 | 0.0 | 2.0 | 0.00 | 0.02 | 0.00 | 69 | 1007.8 |
| 20260506041800 | 63 | 360 | 0.0 | 3.0 | 0.00 | 0.02 | 0.00 | 69 | 1007.8 |
| 20260506041314 | 63 | 360 | 1.0 | 3.0 | 0.00 | 0.02 | 0.00 | 68 | 1007.8 |
| 20260506040811 | 63 | 360 | 0.0 | 2.0 | 0.00 | 0.02 | 0.00 | 68 | 1007.9 |
| 20260506040300 | 64 | 360 | 0.0 | 3.0 | 0.00 | 0.02 | 0.00 | 67 | 1007.9 |
| 20260506035800 | 64 | 360 | 1.0 | 3.0 | 0.00 | 0.02 | 0.02 | 67 | 1007.9 |
| 20260506035258 | 64 | 360 | 0.0 | 5.0 | 0.00 | 0.02 | 0.02 | 67 | 1007.8 |
| 20260506034813 | 64 | 360 | 2.0 | 5.0 | 0.00 | 0.02 | 0.02 | 67 | 1007.8 |
| 20260506034310 | 64 | 360 | 1.0 | 3.0 | 0.00 | 0.02 | 0.02 | 67 | 1007.8 |
| 20260506033801 | 64 | 360 | 0.0 | 4.0 | 0.00 | 0.02 | 0.02 | 67 | 1007.8 |
| 20260506033313 | 64 | 360 | 0.0 | 6.0 | 0.00 | 0.02 | 0.02 | 66 | 1007.8 |
| 20260506032831 | 65 | 360 | 1.0 | 6.0 | 0.00 | 0.02 | 0.02 | 66 | 1007.8 |
| 20260506032306 | 65 | 360 | 1.0 | 4.0 | 0.00 | 0.02 | 0.02 | 66 | 1007.8 |
| 20260506031806 | 65 | 360 | 0.0 | 5.0 | 0.00 | 0.02 | 0.02 | 66 | 1007.8 |
| 20260506031324 | 65 | 360 | 1.0 | 5.0 | 0.00 | 0.02 | 0.02 | 66 | 1007.8 |
| 20260506030755 | 65 | 360 | 0.0 | 4.0 | 0.00 | 0.02 | 0.02 | 67 | 1007.8 |
| 20260506030304 | 65 | 360 | 1.0 | 4.0 | 0.00 | 0.02 | 0.02 | 66 | 1007.8 |
| 20260506025820 | 65 | 360 | 1.0 | 3.0 | 0.00 | 0.02 | 0.02 | 66 | 1007.8 |
| 20260506025315 | 65 | 360 | 0.0 | 4.0 | 0.00 | 0.02 | 0.02 | 67 | 1007.7 |
| 20260506024807 | 65 | 360 | 1.0 | 4.0 | 0.00 | 0.02 | 0.02 | 67 | 1007.7 |
| 20260506024304 | 65 | 360 | 0.0 | 3.0 | 0.00 | 0.02 | 0.02 | 67 | 1007.7 |
| 20260506023803 | 65 | 360 | 1.0 | 3.0 | 0.00 | 0.02 | 0.02 | 67 | 1007.6 |
| 20260506023255 | 65 | 360 | 0.0 | 3.0 | 0.00 | 0.02 | 0.02 | 67 | 1007.6 |
| 20260506022809 | 65 | 360 | 0.0 | 2.0 | 0.00 | 0.02 | 0.02 | 68 | 1007.6 |
| 20260506022306 | 65 | 360 | 0.0 | 3.0 | 0.00 | 0.02 | 0.02 | 68 | 1007.7 |
| 20260506021805 | 65 | 360 | 0.0 | 3.0 | 0.00 | 0.02 | 0.02 | 68 | 1007.7 |
| 20260506021305 | 65 | 360 | 0.0 | 1.0 | 0.00 | 0.02 | 0.02 | 68 | 1007.7 |
| 20260506020803 | 65 | 360 | 0.0 | 2.0 | 0.00 | 0.02 | 0.02 | 69 | 1007.5 |
| 20260506020304 | 65 | 360 | 0.0 | 2.0 | 0.00 | 0.02 | 0.02 | 69 | 1007.5 |
| 20260506015801 | 65 | 360 | 1.0 | 4.0 | 0.00 | 0.02 | 0.02 | 69 | 1007.5 |
| 20260506015255 | 65 | 360 | 1.0 | 3.0 | 0.00 | 0.02 | 0.02 | 70 | 1007.4 |
| 20260506014805 | 65 | 360 | 0.0 | 2.0 | 0.00 | 0.02 | 0.02 | 71 | 1007.4 |
| 20260506014258 | 65 | 360 | 0.0 | 2.0 | 0.00 | 0.02 | 0.02 | 71 | 1007.4 |
| 20260506013758 | 65 | 360 | 0.0 | 3.0 | 0.00 | 0.02 | 0.02 | 71 | 1007.4 |
| 20260506013255 | 65 | 360 | 0.0 | 3.0 | 0.00 | 0.02 | 0.02 | 71 | 1007.4 |
| 20260506012756 | 65 | 360 | 0.0 | 4.0 | 0.00 | 0.02 | 0.02 | 71 | 1007.4 |
| 20260506012301 | 65 | 360 | 0.0 | 4.0 | 0.00 | 0.02 | 0.02 | 72 | 1007.2 |
| 20260506011755 | 65 | 360 | 1.0 | 4.0 | 0.00 | 0.02 | 0.02 | 73 | 1007.2 |
| 20260506011334 | 65 | 360 | 1.0 | 3.0 | 0.00 | 0.02 | 0.02 | 74 | 1007.2 |
| 20260506010801 | 65 | 360 | 0.0 | 2.0 | 0.00 | 0.02 | 0.02 | 75 | 1007.1 |
| 20260506010310 | 66 | 360 | 0.0 | 2.0 | 0.00 | 0.02 | 0.02 | 76 | 1007.1 |
| 20260506005822 | 66 | 360 | 0.0 | 1.0 | 0.00 | 0.02 | 0.02 | 77 | 1007.1 |
| 20260506005317 | 67 | 360 | 0.0 | 1.0 | 0.00 | 0.02 | 0.02 | 76 | 1007.0 |
| 20260506004828 | 67 | 360 | 0.0 | 1.0 | 0.00 | 0.02 | 0.02 | 75 | 1007.0 |
| 20260506004257 | 67 | 360 | 0.0 | 1.0 | 0.02 | 0.02 | 0.02 | 75 | 1007.0 |
| 20260506003752 | 68 | 360 | 0.0 | 0.0 | 0.02 | 0.02 | 0.02 | 74 | 1006.9 |
| 20260506003312 | 68 | 360 | 0.0 | 1.0 | 0.02 | 0.02 | 0.02 | 74 | 1006.9 |
| 20260506002830 | 69 | 360 | 0.0 | 1.0 | 0.02 | 0.02 | 0.02 | 71 | 1006.9 |
| 20260506002301 | 70 | 360 | 0.0 | 1.0 | 0.02 | 0.02 | 0.02 | 70 | 1006.9 |
| 20260506001758 | 70 | 360 | 0.0 | 0.0 | 0.02 | 0.02 | 0.02 | 69 | 1006.9 |
| 20260506001251 | 71 | 360 | 0.0 | 0.0 | 0.02 | 0.02 | 0.02 | 69 | 1006.7 |
| 20260506000806 | 72 | 360 | 0.0 | 1.0 | 0.02 | 0.02 | 0.02 | 67 | 1006.7 |
| 20260506000319 | 72 | 360 | 0.0 | 1.0 | 0.02 | 0.02 | 0.02 | 65 | 1006.7 |
| 20260505235809 | 73 | 360 | 0.0 | 4.0 | 0.02 | 0.02 | 0.02 | 64 | 1006.7 |
| 20260505235307 | 73 | 360 | 1.0 | 4.0 | 0.02 | 0.02 | 0.02 | 62 | 1006.7 |
| 20260505234802 | 74 | 360 | 1.0 | 4.0 | 0.01 | 0.01 | 0.01 | 60 | 1006.7 |
| 20260505234318 | 74 | 360 | 1.0 | 4.0 | 0.00 | 0.00 | 0.00 | 53 | 1006.7 |
| 20260505233759 | 74 | 360 | 0.0 | 6.0 | 0.00 | 0.00 | 0.00 | 51 | 1005.2 |
| 20260505233254 | 74 | 360 | 3.0 | 8.0 | 0.00 | 0.00 | 0.00 | 50 | 1005.2 |
| 20260505232809 | 74 | 360 | 2.0 | 8.0 | 0.00 | 0.00 | 0.00 | 49 | 1005.2 |
| 20260505232305 | 74 | 360 | 2.0 | 6.0 | 0.00 | 0.00 | 0.00 | 49 | 1004.5 |
| 20260505231820 | 75 | 360 | 2.0 | 7.0 | 0.00 | 0.00 | 0.00 | 48 | 1004.5 |
| 20260505231309 | 75 | 360 | 2.0 | 10.0 | 0.00 | 0.00 | 0.00 | 48 | 1004.5 |
| 20260505230824 | 75 | 360 | 4.0 | 10.0 | 0.00 | 0.00 | 0.00 | 47 | 1004.2 |
| 20260505230257 | 75 | 360 | 3.0 | 8.0 | 0.00 | 0.00 | 0.00 | 47 | 1004.2 |
| 20260505225810 | 75 | 360 | 4.0 | 8.0 | 0.00 | 0.00 | 0.00 | 47 | 1004.2 |
| 20260505225301 | 76 | 360 | 3.0 | 9.0 | 0.00 | 0.00 | 0.00 | 47 | 1004.2 |
| 20260505224759 | 76 | 360 | 2.0 | 10.0 | 0.00 | 0.00 | 0.00 | 47 | 1004.2 |
| 20260505224302 | 76 | 360 | 3.0 | 10.0 | 0.00 | 0.00 | 0.00 | 46 | 1004.2 |
| 20260505223802 | 76 | 360 | 3.0 | 7.0 | 0.00 | 0.00 | 0.00 | 46 | 1003.9 |
| 20260505223302 | 76 | 360 | 3.0 | 12.0 | 0.00 | 0.00 | 0.00 | 46 | 1003.9 |
| 20260505222831 | 77 | 360 | 4.0 | 12.0 | 0.00 | 0.00 | 0.00 | 46 | 1003.9 |
| 20260505222307 | 77 | 360 | 3.0 | 8.0 | 0.00 | 0.00 | 0.00 | 46 | 1003.7 |
| 20260505221753 | 77 | 360 | 3.0 | 13.0 | 0.00 | 0.00 | 0.00 | 45 | 1003.7 |
| 20260505221310 | 77 | 170 | 3.0 | 13.0 | 0.00 | 0.00 | 0.00 | 45 | 1003.7 |
| 20260505220805 | 78 | 209 | 4.0 | 8.0 | 0.00 | 0.00 | 0.00 | 44 | 1003.7 |
| 20260505220334 | 78 | 210 | 3.0 | 7.0 | 0.00 | 0.00 | 0.00 | 45 | 1003.7 |
| 20260505215800 | 78 | 165 | 3.0 | 7.0 | 0.00 | 0.00 | 0.00 | 45 | 1003.7 |
| 20260505215310 | 78 | 130 | 3.0 | 6.0 | 0.00 | 0.00 | 0.00 | 44 | 1003.7 |
| 20260505214756 | 78 | 218 | 3.0 | 11.0 | 0.00 | 0.00 | 0.00 | 44 | 1003.7 |
| 20260505214305 | 79 | 246 | 4.0 | 11.0 | 0.00 | 0.00 | 0.00 | 43 | 1003.7 |